Monticello, KY

10:45 PM EST on November 11, 2019 (GMT -0500)
Wayne County

Weather History for KEKQ - September, 2019

Change the Weather History Date:

Tuesday, September 17, 2019

  Actual Average Record
Temperature  
Mean Temperature 76 °F -  
Max Temperature 90 °F 79 °F 91 °F (1991)
Min Temperature 62 °F 57 °F 40 °F (1961)
Cooling Degree Days 11    
Growing Degree Days 26 (Base 50)    
Moisture  
Dew Point 65 °F    
Average Humidity 86    
Maximum Humidity 100    
Minimum Humidity 43    
Precipitation  
Precipitation 0.00 in - - ()
Sea Level Pressure  
Sea Level Pressure 30.05 in    
Wind  
Wind Speed 5 mph (NNW)    
Max Wind Speed 17 mph    
Max Gust Speed 23 mph    
Visibility 5 miles    
Events Fog    
Averages and records for this station are not official NWS values.
T = Trace of Precipitation, MM = Missing Value Source: NWS Daily Summary

Daily Weather History Graph

Daily Weather History Graph

Search for Another Location

Airport or City:

Astronomy

Sep. 17, 2019 Rise Set
Actual Time 6:23 AM CDT 6:44 PM CDT
Civil Twilight 5:57 AM CDT 7:10 PM CDT
Nautical Twilight 5:26 AM CDT 7:40 PM CDT
Astronomical Twilight 4:55 AM CDT 8:11 PM CDT
Moon 8:51 PM CDT (9/17) 9:22 AM CDT (9/17)
Length of Visible Light 13h 13m
Length of Day
12h 21m
Waning Gibbous, 89% of the Moon is Illuminated
Sep 17
Waning Gibbous
Sep 21
Last Quarter
Sep 28
New
Oct 5
First Quarter
Oct 13
Full

Hourly Weather History & Observations

Time (CDT) Temp. Heat Index Dew Point Humidity Pressure Visibility Wind Dir Wind Speed Gust Speed Precip Events Conditions
3:56 AM 64.0 °F - 64.0 °F 100% 30.01 in 6.0 mi Calm Calm - N/A   Clear
4:56 AM 63.0 °F - 63.0 °F 100% 30.02 in 5.0 mi Calm Calm - N/A   Mostly Cloudy
5:03 AM 64.4 °F - 64.4 °F 100% 30.06 in 1.8 mi Calm Calm - N/A   Mostly Cloudy
5:09 AM 64.4 °F - 64.4 °F 100% 30.06 in 1.0 mi North 8.1 mph - N/A   Mostly Cloudy
5:21 AM 64.4 °F - 64.4 °F 100% 30.06 in 2.5 mi NE 9.2 mph - N/A   Mostly Cloudy
5:31 AM 62.6 °F - 62.6 °F 100% 30.06 in 1.0 mi Calm Calm - N/A   Mostly Cloudy
5:33 AM 62.6 °F - 62.6 °F 100% 30.06 in 0.5 mi Calm Calm - N/A Fog Fog
5:42 AM 62.6 °F - 62.6 °F 100% 30.07 in 0.2 mi Calm Calm - N/A Fog Fog
5:56 AM 62.1 °F - 62.1 °F 100% 30.04 in 0.8 mi NW 9.2 mph - N/A   Overcast
6:00 AM 62.6 °F - 62.6 °F 100% - 1.2 mi NNE 9.2 mph - N/A   Overcast
6:07 AM 62.6 °F - 62.6 °F 100% 30.08 in 3.0 mi NNE 9.2 mph - N/A   Overcast
6:25 AM 62.6 °F - 62.6 °F 100% 30.09 in 1.0 mi West 8.1 mph - N/A   Mostly Cloudy
6:27 AM 62.6 °F - 62.6 °F 100% 30.09 in 0.5 mi West 8.1 mph - N/A Fog Fog
6:32 AM 62.6 °F - 62.6 °F 100% 30.09 in 0.2 mi NNW 9.2 mph - N/A Fog Fog
6:56 AM 64.0 °F - 64.0 °F 100% 30.06 in 0.2 mi Calm Calm - N/A Fog Fog
7:01 AM 64.4 °F - 64.4 °F 100% 30.09 in 0.8 mi Calm Calm - N/A   Mostly Cloudy
7:18 AM 66.2 °F - 66.2 °F 100% 30.09 in 2.5 mi West 10.4 mph - N/A   Mostly Cloudy
7:25 AM 66.2 °F - 66.2 °F 100% 30.09 in 3.0 mi NW 9.2 mph - N/A   Scattered Clouds
7:56 AM 71.1 °F - 69.1 °F 93% 30.07 in 8.0 mi Variable 4.6 mph - N/A   Clear
8:56 AM 77.0 °F - 71.1 °F 82% 30.06 in 10.0 mi North 9.2 mph - N/A   Clear
9:56 AM 82.0 °F 86.3 °F 71.1 °F 69% 30.06 in 10.0 mi North - - N/A   Clear
10:56 AM 84.9 °F 89.4 °F 70.0 °F 61% - 10.0 mi North 12.7 mph 17.3 mph N/A   Clear
11:56 AM 89.1 °F 92.1 °F 66.9 °F 48% 30.06 in 10.0 mi Variable 5.8 mph 20.7 mph N/A   Partly Cloudy
12:56 PM 88.0 °F 90.3 °F 66.0 °F 48% 30.04 in 10.0 mi North 15.0 mph 23.0 mph N/A   Clear
1:56 PM 90.0 °F 92.4 °F 66.0 °F 45% 30.01 in 10.0 mi NNE 17.3 mph - N/A   Clear
2:56 PM 90.0 °F 91.7 °F 64.9 °F 43% 30.00 in 10.0 mi North - - N/A   Partly Cloudy
5:56 PM 84.9 °F 85.9 °F 63.0 °F 48% 29.99 in 10.0 mi NNE 16.1 mph - N/A   Clear
6:56 PM 75.0 °F - 64.9 °F 71% - 10.0 mi NNE 12.7 mph - N/A   Clear
7:56 PM 72.0 °F - 64.9 °F 78% 30.02 in 10.0 mi WNW 6.9 mph - N/A   Clear
8:56 PM 72.0 °F - 64.0 °F 76% 30.02 in 10.0 mi North 13.8 mph - N/A   Clear
9:56 PM 70.0 °F - 64.0 °F 81% 30.04 in 10.0 mi WNW 5.8 mph - N/A   Clear
10:56 PM 64.9 °F - 62.1 °F 90% 30.04 in 10.0 mi Variable 5.8 mph - N/A   Clear
11:56 PM 64.0 °F - 62.1 °F 93% 30.03 in 10.0 mi West 6.9 mph - N/A   Clear